www.pogodaiklimat.ru
ПОГОДА в Таунджи

Архив погоды в Таунджи (Мьянма)

Время
(UTC), дата
12 20.05
00 21.05
03 21.05
06 21.05
09 21.05
12 21.05
00 22.05
03 22.05
06 22.05
09 22.05
12 22.05
00 23.05
03 23.05
06 23.05
09 23.05
12 23.05
00 24.05
03 24.05
06 24.05
09 24.05
12 24.05
00 25.05
03 25.05
06 25.05
09 25.05
12 25.05
00 26.05
03 26.05
06 26.05
09 26.05
12 26.05
00 27.05
03 27.05
06 27.05
09 27.05
Ветер
(напр.,м/с)
Видим. Явления Облачность Т
(С)
Тd
(С)
f
(%)
Тe
(С)
Тes
(С)
Комфортность P
(гПа)
Po
(гПа)
Тmin
(С)
Tmax
(С)
R
(мм)
R24
(мм)
S
(см)
ЮЗ 1 5000 м мгла {гроза} 5/5 300 м
[Cb cap]
+23.8 +17.4 67 +28 +28 душно 1003.9 851.0 +29.0 2
штиль 0 5000 м дымка 6/6 300 м
[Cb calv]
+19.8 +18.5 92 +22 +23 комфорт 1008.3 852.8 +18.7 1
ЮЗ 1 1000 м туман, небо не видно 10/10 50 м
[Cb calv]
+22.0 +18.5 81 +27 +27 душно 1009.1 854.5
Ю 1 200 м туман, небо не видно {гроза, морось} 10/10 50 м
[Cb cap]
+19.0 +17.5 91 +22 +22 комфорт 1010.0 853.8
ЮЗ 3 7000 м {туман} 5/5 300 м
[Cb calv]
+25.0 +18.6 68
ЮЗ 1 6000 м {морось} 6/5 300 м
[Cb cap Ac trans]
+23.0 +19.8 82 +30 +30 очень душно 1004.7 851.3 +25.8 8
ЮЗ 1 5000 м {морось} 8/8 300 м
[Cb calv]
+19.8 +18.5 92 +24 +24 комфорт 1009.0 853.4 +18.7 1
ЮЗ 1 7000 м 6/5 300 м
[Cb calv Ac trans]
+23.2 +19.8 81 +30 +38 очень душно 1008.9 854.9
ЮЗ 3 6000 м 9/6 300 м
[Cb calv Ac trans]
+24.4 +19.1 72 +29 +33 душно 1006.2 853.2
ЮЗ 2 6000 м гроза без осадков 9/8 300 м
[Cb cap Ac trans]
+25.0 +18.6 68 +30 +31 душно 1003.6 851.3
ЮВ 1 6000 м {гроза, морось} 8/8 300 м
[Cb cap]
+22.8 +19.8 83 +29 +29 очень душно 1005.4 851.8 +25.0 1
штиль 0 6000 м дымка 5/4 300 м
[Frnb Ac trans]
+19.0 +19.0 100 +21 +22 комфорт 1008.5 852.6 +18.0
В 1 7000 м 8/6 300 м
[Cb calv Ac trans]
+23.0 +19.8 82 +30 +35 очень душно 1007.5 853.6
ЮВ 2 7000 м 9/8 300 м
[Cb calv Ac trans]
+24.8 +20.5 77 +31 +34 очень душно 1004.8 852.2
ЮВ 5 6000 м {морось} 9/8 300 м
[Cb calv Ac trans]
+24.2 +19.1 73 +29 +30 душно 1003.1 850.5
ЮВ 2 6000 м 9/8 300 м
[Cb calv Ac trans]
+23.0 +18.1 74 +29 +29 очень душно 1003.8 850.5 +24.8 0.0
штиль 0 6000 м дымка 8/8 300 м
[Cb calv]
+20.0 +18.5 91 +23 +23 комфорт 1006.3 851.2 +19.0 1
В 2 7000 м 8/6 300 м
[Cb calv Ac trans]
+25.0 +18.6 68 +30 +34 душно 1006.4 853.7
ЮВ 3 7000 м 8/6 300 м
[Cb calv Ac trans]
+25.8 +20.3 72 +32 +37 очень душно 1003.8 851.8
ЮВ 5 7000 м 8/6 300 м
[Cb calv Ac trans]
+27.7 +20.3 64 +34 +36 очень душно 1000.6 850.0
ЮВ 2 6000 м 9/8 300 м
[Cb calv Ac trans]
+23.4 +18.1 72 +29 +29 душно 1002.0 849.2 +27.8
ЮВ 4 100 м слаб. морось {дождь} 10/10 50 м
[Cb cap]
+19.7 +19.7 100 +23 +23 комфорт 1006.2 851.0 +18.4 27
ЮВ 6 100 м слаб. морось 10/10 50 м
[Cb cap]
+20.5 +20.5 100 +25 +25 комфорт 1007.4 852.4
ЮВ 3 5000 м слаб. морось {туман} 10/10 100 м
[Cb cap]
+22.4 +20.5 89 +29 +29 очень душно 1005.7 851.8
ЮВ 7 5000 м слаб. морось 10/10 200 м
[Cb cap]
+22.2 +20.5 90
ЮВ 7 5000 м {морось} 10/10 200 м
[Cb cap]
+20.5 +18.5 88 +24 +24 комфорт 1004.9 850.2 +23.8 3
ЮВ 8 1000 м морось 10/10 50 м
[Cb calv]
+20.5 +18.5 88 +24 +24 комфорт 1007.0 852.0 +18.5 5
ЮВ 8 3000 м слаб. морось 10/10 100 м
[Cb calv]
+20.7 +18.5 87
ЮВ 3 3000 м слаб. морось 10/10 100 м
[Cb calv]
+21.0 +21.0 100 +27 +27 душно 1007.9 853.0
ЮВ 17 3000 м слаб. морось 10/10 100 м
[Cb calv]
+20.8 +19.5 92 +24 +24 комфорт 1004.9 850.4
ЮВ 5 3000 м {морось} 10/10 100 м
[Cb calv]
+20.7 +19.5 93 +25 +25 комфорт 1004.7 850.2 +21.0 2
ЮВ 2 2000 м слаб. морось 10/10 50 м
[Cb calv]
+19.8 +19.5 98 +24 +24 комфорт 1005.7 850.6 +18.5 1
ЮВ 3 2000 м слаб. морось 10/10 100 м
[Cb calv]
+20.3 +20.3 100 +25 +25 комфорт 1006.9 851.8
ЮВ 2 2000 м слаб. дождь {морось} 10/10 100 м
[Cb calv]
+20.8 +20.8 100 +27 +27 душно 1006.0 851.3
ЮВ 2 6000 м слаб. морось {дождь} 10/10 100 м
[Cb calv]
+22.2 +20.5 90
Местоположение метеостанции Таунджи (Мьянма): широта 20.78 долгота 97.05 высота над уровнем моря 1436 м.
В архиве по умолчанию представлена погода в Таунджи за последнюю неделю. Архивные данные за месяц целиком и за предыдущие месяцы, начиная с января 2011 года, Вы можете получить, выбрав интересующий диапазон дат из раскрывающегося списка и нажав кнопку "Найти!".
*Определитесь, кто Вы:
Внимание! Время в таблицах - всемирное. Для получения местного времени необходимо прибавить поправку, которая равна 6.5 ч.
Некоторые строки с данными для отдельных станций могут быть выделены курсивом. Это означает, что фактические данные отсутствуют по различным причинам, а приведенные значения являются расчетными модельными данными для данного пункта наблюдений.
Смотрите также архив погоды в соседних городах и на ближайших метеорологических станциях:
Партнеры нашего сайта:      
Пояснения к столбцам:
  • Ветер - указаны скорость ветра в м/с - средняя за 10 мин, порывы в срок и между сроками (в фигурных скобках) и направление, откуда дует ветер: С - северный,
  • СВ - северо-восточный, В - восточный, ЮВ - юго-восточный, Ю - южный, ЮЗ - юго-западный, З - западный, СЗ - северо-западный.
  • Видимость - горизонтальная дальность видимости в метрах или километрах. При видимости от 1 до 10 км при отсутствии осадков обычно наблюдается дымка, при ухудшении видимости до 1 км и менее - туман. В сухую погоду видимость может ухудшаться дымом, пылью или мглою.
  • Явления - указаны атмосферные явления, наблюдавшиеся в срок или в последний час перед сроком; фигурными скобками обозначены явления, наблюдавшиеся между сроками (за 1-3 часа до срока); квадратными скобками обозначены град или гололедные отложения с указанием их диаметра в мм.
  • Облачность - указаны через наклонную черту общая и нижняя облачность в баллах и высота нижней границы облаков в метрах; квадратными скобками обозначены формы облаков: Ci - перистые, Cs - перисто-слоистые, Cc - перисто-кучевые, Ac - высококучевые, As - высокослоистые, Sc - слоисто-кучевые, Ns - слоисто-дождевые, Cu - кучевые, Cb - кучево-дождевые. Подробнее классификацию облаков см. в Атласе облаков (PDF).
  • T - Температура воздуха - температура, измеренная на высоте 2 м над землей.
  • Td - Температура точки росы - температура, при понижении до которой содержащийся в воздухе водяной пар достигнет насыщения.
  • f - Относительная влажность воздуха - влажноcть воздуха, измеренная на высоте 2 м над землей.
  • Te - Эффективная температура - температура, которую ощущает одетый по сезону человек в тени. Характеристика душности погоды. При расчете учитывается влияние влажности воздуха и скорости ветра на теплоощущения человека.
  • Tes - Эффективная температура на солнце - температура, которую ощущает человек, с поправкой на солнечный нагрев. Характеристика знойности погоды. Зависит от высоты солнца над горизонтом, облачности и скорости ветра. Ночью, в пасмурную погоду, а также при ветре 12 м/с и более поправка равна нулю.
  • P - Атмосферное давление - приведенное к уровню моря атмосферное давление.
  • Po - Атмосферное давление - измеренное на уровне метеостанции атмосферное давление.
  • Tmin - Минимальная температура - минимум температуры воздуха на высоте 2 м над землей.
  • Tmax - Максимальная температура - максимум температуры воздуха на высоте 2 м над землей.
  • R - Количество осадков - Количество выпавших осадков за период времени, мм. При наведении курсора мыши на число - период времени, за который выпало указанное количество осадков.
  • R24 - Количество осадков - Количество выпавших осадков за 24 часа, мм.
  • S - Снежный покров - Высота снежного покрова, см. При наведении курсора мыши на число - состояние снежного покрова и степень покрытия местности в баллах.